Location: Unspecified
(41.5000°N, 0.0000°E)
Time: 08:11:06
(UTC+00:00)

deb Explorer IX - Pass Details

Date: 08 October 2020
Orbit: 537 x 1106 km, 38.8° (Epoch: 19 October)

Event Time Altitude Azimuth Distance (km) Brightness Sun altitude
Rises 18:17:25 0° 276° (W) 3,244 ? -9.8°
Reaches altitude 10° 18:20:21 10° 265° (W) 2,208 ? -10.3°
Maximum altitude 18:24:34 26° 209° (SSW) 1,269 ? -11.1°
Drops below altitude 10° 18:28:19 10° 152° (SSE) 1,942 ? -11.8°
Enters shadow 18:29:35 - 144° (SE) 2,360 ? -12.1°
